Mount Werner, CO

8:50 AM MDT on August 17, 2017 (GMT -0600)
Mount Werner

Weather History for K3MW - November, 2012

Change the Weather History Date:

Saturday, November 24, 2012

  Actual Average (KSBS) Record (KSBS)
Temperature  
Mean Temperature 34 °F -  
Max Temperature 37 °F 37 °F 61 °F (1939)
Min Temperature 32 °F 10 °F -17 °F (1930)
Degree Days  
Heating Degree Days 30    
Moisture  
Dew Point 5 °F    
Average Humidity 30    
Maximum Humidity 38    
Minimum Humidity 23    
Precipitation  
Precipitation 0.00 in - - ()
Sea Level Pressure  
Sea Level Pressure 30.14 in    
Wind  
Wind Speed 16 mph (West)    
Max Wind Speed 22 mph    
Max Gust Speed 31 mph    
Visibility 10 miles    
Events      
Averages and records for this station are not official NWS values.
T = Trace of Precipitation, MM = Missing Value Source: NWS Daily Summary

Daily Weather History Graph

Daily Weather History Graph

Search for Another Location

Airport or City:

Trip Planner

Search our weather history database for the weather conditions in past years. The results will help you decide how hot, cold, wet, or windy it might be!

Date:

Astronomy

Nov. 24, 2012 Rise Set
Actual Time 7:04 AM MST 4:43 PM MST
Civil Twilight 6:34 AM MST 5:13 PM MST
Nautical Twilight 6:00 AM MST 5:46 PM MST
Astronomical Twilight 5:28 AM MST 6:19 PM MST
Moon 2:30 PM MST (11/24) 3:23 AM MST (11/24)
Length of Visible Light 10h 39m
Length of Day
9h 39m
Waxing Gibbous, 87% of the Moon is Illuminated
Nov 24
Waxing Gibbous
Nov 28
Full
Dec 6
Last Quarter
Dec 13
New
Dec 19
First Quarter

Hourly Weather History & Observations

Time (MST) Temp. Windchill Dew Point Humidity Pressure Visibility Wind Dir Wind Speed Gust Speed Precip Events Conditions
12:16 AM 33.8 °F 23.9 °F 1.4 °F 25% 30.29 in 10.0 mi SSW 15.0 mph - N/A   Clear
12:36 AM 33.8 °F 23.5 °F 1.4 °F 25% 30.28 in 10.0 mi SSW 16.1 mph - N/A   Clear
12:56 AM 33.8 °F 23.9 °F -0.4 °F 23% 30.28 in 10.0 mi SW 15.0 mph 21.9 mph N/A   Clear
1:16 AM 33.8 °F 22.8 °F -0.4 °F 23% 30.27 in 10.0 mi SW 18.4 mph 25.3 mph N/A   Clear
1:36 AM 33.8 °F 23.5 °F -0.4 °F 23% 30.27 in 10.0 mi WSW 16.1 mph - N/A   Clear
1:56 AM 33.8 °F 23.2 °F -0.4 °F 23% 30.27 in 10.0 mi WSW 17.3 mph 21.9 mph N/A   Clear
2:16 AM 33.8 °F 23.5 °F -0.4 °F 23% 30.26 in 10.0 mi WSW 16.1 mph - N/A   Clear
2:36 AM 33.8 °F 23.5 °F -0.4 °F 23% 30.26 in 10.0 mi WSW 16.1 mph - N/A   Clear
2:56 AM 33.8 °F 24.3 °F -0.4 °F 23% 30.26 in 10.0 mi WSW 13.8 mph - N/A   Clear
3:16 AM 33.8 °F 23.5 °F -0.4 °F 23% 30.25 in 10.0 mi WSW 16.1 mph - N/A   Clear
3:36 AM 33.8 °F 23.2 °F 1.4 °F 25% 30.24 in 10.0 mi WSW 17.3 mph - N/A   Clear
3:56 AM 32.0 °F 21.6 °F 1.4 °F 27% 30.23 in 10.0 mi WSW 15.0 mph - N/A   Clear
4:16 AM 32.0 °F 22.5 °F 1.4 °F 27% 30.23 in 10.0 mi West 12.7 mph - N/A   Clear
4:36 AM 32.0 °F 22.5 °F 1.4 °F 27% 30.22 in 10.0 mi WSW 12.7 mph - N/A   Clear
5:16 AM 32.0 °F 21.6 °F 1.4 °F 27% 30.22 in 10.0 mi West 15.0 mph - N/A   Clear
5:36 AM 32.0 °F 21.6 °F 1.4 °F 27% 30.21 in 10.0 mi West 15.0 mph 20.7 mph N/A   Clear
5:56 AM 33.8 °F 22.8 °F 1.4 °F 25% 30.20 in 10.0 mi West 18.4 mph 23.0 mph N/A   Clear
6:16 AM 33.8 °F 23.9 °F 1.4 °F 25% 30.20 in 10.0 mi West 15.0 mph - N/A   Clear
6:36 AM 32.0 °F 21.6 °F 3.2 °F 30% 30.21 in 10.0 mi West 15.0 mph 20.7 mph N/A   Clear
6:56 AM 33.8 °F 22.5 °F 3.2 °F 28% 30.20 in 10.0 mi WSW 19.6 mph 23.0 mph N/A   Clear
7:16 AM 32.0 °F 22.1 °F 3.2 °F 30% 30.20 in 10.0 mi West 13.8 mph - N/A   Clear
7:36 AM 32.0 °F 21.2 °F 3.2 °F 30% 30.20 in 10.0 mi West 16.1 mph 21.9 mph N/A   Clear
7:56 AM 32.0 °F 21.2 °F 3.2 °F 30% 30.20 in 10.0 mi West 16.1 mph 24.2 mph N/A   Clear
8:16 AM 32.0 °F 20.8 °F 5.0 °F 32% 30.20 in 10.0 mi West 17.3 mph - N/A   Clear
8:36 AM 32.0 °F 21.6 °F 5.0 °F 32% 30.20 in 10.0 mi West 15.0 mph 20.7 mph N/A   Clear
8:56 AM 32.0 °F 20.8 °F 5.0 °F 32% 30.20 in 10.0 mi West 17.3 mph 24.2 mph N/A   Clear
9:16 AM 33.8 °F 23.5 °F 3.2 °F 28% 30.20 in 10.0 mi West 16.1 mph 25.3 mph N/A   Clear
9:36 AM 33.8 °F 23.9 °F 5.0 °F 30% 30.20 in 10.0 mi West 15.0 mph - N/A   Clear
9:56 AM 33.8 °F 23.2 °F 5.0 °F 30% 30.19 in 10.0 mi West 17.3 mph 23.0 mph N/A   Clear
10:16 AM 33.8 °F 23.9 °F 5.0 °F 30% 30.19 in 10.0 mi West 15.0 mph 21.9 mph N/A   Clear
10:36 AM 33.8 °F 23.5 °F 5.0 °F 30% 30.18 in 10.0 mi West 16.1 mph 23.0 mph N/A   Clear
10:56 AM 33.8 °F 24.8 °F 5.0 °F 30% 30.18 in 10.0 mi West 12.7 mph 20.7 mph N/A   Clear
11:16 AM 35.6 °F 28.0 °F 5.0 °F 28% 30.18 in 10.0 mi West 10.4 mph 23.0 mph N/A   Clear
11:36 AM 35.6 °F 25.5 °F 5.0 °F 28% 30.16 in 10.0 mi West 17.3 mph 24.2 mph N/A   Clear
11:56 AM 35.6 °F 28.0 °F 5.0 °F 28% 30.15 in 10.0 mi WNW 10.4 mph 18.4 mph N/A   Clear
12:16 PM 35.6 °F 27.1 °F 5.0 °F 28% 30.14 in 10.0 mi West 12.7 mph 18.4 mph N/A   Clear
12:36 PM 35.6 °F 26.2 °F 6.8 °F 30% 30.13 in 10.0 mi West 15.0 mph 19.6 mph N/A   Clear
12:56 PM 37.4 °F 29.3 °F 6.8 °F 28% 30.13 in 10.0 mi West 12.7 mph 18.4 mph N/A   Clear
1:16 PM 37.4 °F 30.3 °F 8.6 °F 30% 30.13 in 10.0 mi West 10.4 mph 17.3 mph N/A   Clear
1:36 PM 37.4 °F 28.9 °F 8.6 °F 30% 30.12 in 10.0 mi West 13.8 mph 20.7 mph N/A   Clear
1:56 PM 37.4 °F 27.8 °F 8.6 °F 30% 30.11 in 10.0 mi West 17.3 mph 24.2 mph N/A   Clear
2:16 PM 37.4 °F 28.9 °F 8.6 °F 30% 30.11 in 10.0 mi West 13.8 mph 19.6 mph N/A   Clear
2:36 PM 37.4 °F 28.2 °F 10.4 °F 33% 30.10 in 10.0 mi West 16.1 mph 21.9 mph N/A   Clear
2:56 PM 37.4 °F 27.8 °F 8.6 °F 30% 30.10 in 10.0 mi West 17.3 mph 29.9 mph N/A   Clear
3:16 PM 37.4 °F 27.2 °F 8.6 °F 30% 30.08 in 10.0 mi West 19.6 mph 27.6 mph N/A   Clear
3:36 PM 37.4 °F 28.2 °F 6.8 °F 28% 30.08 in 10.0 mi West 16.1 mph 26.5 mph N/A   Clear
3:56 PM 37.4 °F 27.8 °F 6.8 °F 28% 30.08 in 10.0 mi WNW 17.3 mph 26.5 mph N/A   Clear
4:16 PM 37.4 °F 26.6 °F 5.0 °F 26% 30.07 in 10.0 mi West 21.9 mph 31.1 mph N/A   Clear
4:36 PM 35.6 °F 24.5 °F 5.0 °F 28% 30.07 in 10.0 mi West 20.7 mph 29.9 mph N/A   Clear
4:56 PM 35.6 °F 24.8 °F 5.0 °F 28% 30.07 in 10.0 mi West 19.6 mph 25.3 mph N/A   Clear
5:16 PM 33.8 °F 22.8 °F 5.0 °F 30% 30.06 in 10.0 mi West 18.4 mph 25.3 mph N/A   Clear
5:36 PM 33.8 °F 23.2 °F 5.0 °F 30% 30.06 in 10.0 mi West 17.3 mph 28.8 mph N/A   Clear
5:56 PM 33.8 °F 21.9 °F 5.0 °F 30% 30.06 in 10.0 mi West 21.9 mph 29.9 mph N/A   Clear
6:16 PM 33.8 °F 22.8 °F 5.0 °F 30% 30.06 in 10.0 mi West 18.4 mph 27.6 mph N/A   Clear
6:36 PM 33.8 °F 23.5 °F 5.0 °F 30% 30.06 in 10.0 mi West 16.1 mph 27.6 mph N/A   Clear
6:56 PM 33.8 °F 23.5 °F 5.0 °F 30% 30.07 in 10.0 mi West 16.1 mph 21.9 mph N/A   Clear
7:16 PM 33.8 °F 23.5 °F 5.0 °F 30% 30.06 in 10.0 mi West 16.1 mph 23.0 mph N/A   Clear
7:36 PM 33.8 °F 24.3 °F 5.0 °F 30% 30.06 in 10.0 mi West 13.8 mph 20.7 mph N/A   Clear
7:56 PM 32.0 °F 21.6 °F 6.8 °F 35% 30.05 in 10.0 mi West 15.0 mph 20.7 mph N/A   Clear
8:16 PM 32.0 °F 23.0 °F 8.6 °F 38% 30.05 in 10.0 mi West 11.5 mph - N/A   Clear
8:36 PM 32.0 °F 22.5 °F 8.6 °F 38% 30.05 in 10.0 mi West 12.7 mph - N/A   Clear
8:56 PM 32.0 °F 22.1 °F 8.6 °F 38% 30.05 in 10.0 mi West 13.8 mph 18.4 mph N/A   Clear
9:16 PM 32.0 °F 22.1 °F 8.6 °F 38% 30.05 in 10.0 mi West 13.8 mph 19.6 mph N/A   Clear
9:36 PM 32.0 °F 20.5 °F 6.8 °F 35% 30.04 in 10.0 mi WSW 18.4 mph 25.3 mph N/A   Clear
9:56 PM 32.0 °F 21.6 °F 6.8 °F 35% 30.04 in 10.0 mi West 15.0 mph 24.2 mph N/A   Clear
10:16 PM 32.0 °F 20.8 °F 8.6 °F 38% 30.03 in 10.0 mi WSW 17.3 mph 20.7 mph N/A   Clear
10:36 PM 32.0 °F 21.2 °F 8.6 °F 38% 30.03 in 10.0 mi WSW 16.1 mph 24.2 mph N/A   Clear
10:56 PM 32.0 °F 20.1 °F 8.6 °F 38% 30.03 in 10.0 mi WSW 19.6 mph 25.3 mph N/A   Clear
11:16 PM 32.0 °F 22.1 °F 8.6 °F 38% 30.03 in 10.0 mi WSW 13.8 mph 20.7 mph N/A   Clear
11:36 PM 32.0 °F 21.2 °F 6.8 °F 35% 30.02 in 10.0 mi SW 16.1 mph 24.2 mph N/A   Clear
11:56 PM 32.0 °F 20.8 °F 6.8 °F 35% 30.01 in 10.0 mi SSW 17.3 mph 28.8 mph N/A   Clear